DW3723 Weather Reports


time (UTC)temp
C
wind
direction
speed
KPH
gust
KPH
rain 1hr
cm
rain 24hr
cm
rain mn
cm
humidity
%
barometer
mb
20260503180020 15 360 0.0 0.0 0.00 0.00 0.00 71 1009.8
20260503174513 15 360 0.0 0.0 0.00 0.00 0.00 73 1009.9
20260503173011 15 360 0.0 0.0 0.00 0.00 0.00 74 1009.7
20260503171512 14 360 0.0 0.0 0.00 0.00 0.00 75 1009.7
20260503081510 -17 0.0 0.0 0.00 0.00 0.00 1008.3
20260503080117 -17 0.0 0.0 0.00 0.00 0.00 1008.2
20260503071545 -17 0.0 0.0 0.00 0.00 0.00 1008.4
20260503054516 -17 0.0 0.0 0.00 0.00 0.00 1008.6
20260503053013 -17 0.0 0.0 0.00 0.00 0.00 1008.7
20260503051504 -17 0.0 0.0 0.00 0.00 0.00 1008.9
20260503050101 -17 0.0 0.0 0.00 0.00 0.00 1008.8
20260503044601 -17 0.0 0.0 0.00 0.00 0.00 1008.7
20260503043050 -17 0.0 0.0 0.00 0.00 0.00 1008.6
20260503041548 -17 0.0 0.0 0.00 0.00 0.00 1008.4
20260503040046 -17 0.0 0.0 0.00 0.00 0.00 1008.0
20260503034540 -17 0.0 0.0 0.00 0.00 0.00 1007.8
20260503033030 -17 0.0 0.0 0.00 0.00 0.00 1007.6
20260503031527 -17 0.0 0.0 0.00 0.00 0.00 1007.4
20260503030021 -17 0.0 0.0 0.00 0.00 0.00 1007.3
20260503024514 -17 0.0 0.0 0.00 0.00 0.00 1007.1
20260503023010 15 360 0.0 0.0 0.00 0.00 0.00 73 1007.0
20260503021511 16 360 0.0 0.0 0.00 0.00 0.00 72 1007.0
20260503020010 16 360 0.0 0.0 0.00 0.00 0.00 71 1006.9
20260503014509 16 360 0.0 0.0 0.00 0.00 0.00 70 1006.8
20260503013019 17 360 0.0 0.0 0.00 0.00 0.00 68 1006.9
20260503011506 18 360 0.0 0.0 0.00 0.00 0.00 67 1006.8
20260503010006 18 360 0.0 0.0 0.00 0.00 0.00 64 1006.7
20260503004504 19 360 0.0 0.0 0.00 0.00 0.00 62 1006.6
20260503003002 20 360 0.0 0.0 0.00 0.00 0.00 61 1006.6
20260503001501 21 360 0.0 0.0 0.00 0.00 0.00 58 1006.9
20260503000108 20 360 0.0 0.0 0.00 0.00 0.00 60 1006.7
20260502234611 20 360 0.0 0.0 0.00 0.00 0.00 60 1006.8
20260502233108 20 360 0.0 0.0 0.00 0.00 0.00 59 1006.8
20260502231604 20 360 0.0 0.0 0.00 0.00 0.00 59 1007.1
20260502230046 19 360 0.0 0.0 0.00 0.00 0.00 60 1007.4
20260502224544 19 360 0.0 0.0 0.00 0.00 0.00 61 1007.7
20260502223045 18 360 0.0 0.0 0.00 0.00 0.00 62 1008.0
20260502221536 18 360 0.0 0.0 0.00 0.00 0.00 62 1008.4
20260502220038 18 360 0.0 0.0 0.00 0.00 0.00 64 1008.7
20260502214529 18 360 0.0 0.0 0.00 0.00 0.00 65 1008.9
20260502213026 17 360 0.0 0.0 0.00 0.00 0.00 67 1008.8
20260502211533 17 360 0.0 0.0 0.00 0.00 0.00 69 1008.9
20260502210020 17 360 0.0 0.0 0.00 0.00 0.00 71 1009.1
20260502204514 16 360 0.0 0.0 0.00 0.00 0.00 72 1009.4
20260502203011 16 360 0.0 0.0 0.00 0.00 0.00 72 1009.7
20260502201508 16 360 0.0 0.0 0.00 0.00 0.00 73 1010.0
20260502200006 16 360 0.0 0.0 0.00 0.00 0.00 74 1010.2
20260502194501 15 360 0.0 0.0 0.00 0.00 0.00 76 1010.3
20260502193058 15 360 0.0 0.0 0.00 0.00 0.00 78 1010.5
20260502191555 15 360 0.0 0.0 0.00 0.00 0.00 78 1010.6
20260502190054 -17 0.0 0.0 0.00 0.00 0.00 1010.6
20260502184548 -17 0.0 0.0 0.00 0.00 0.00 1010.7
20260502183042 -17 0.0 0.0 0.00 0.00 0.00 1010.8
20260502181537 -17 0.0 0.0 0.00 0.00 0.00 1010.8